Regional Weather Roundup
Issued by NWS New Orleans/Baton Rouge, LA

Home | Current Version | Previous Version | Graphics & Text | Print | Product List | Glossary On
Versions: 1 2 3 4 5 6 7 8 9 10 11 12 13 14 15 16 17 18 19 20 21 22 23 24 25 26 27 28 29 30 31 32 33 34 35 36 37 38 39 40 41 42 43 44 45 46 47 48 49 50
440
ASUS44 KLIX 281107
RWRLIX
NEW ORLEANS REGIONAL WEATHER ROUNDUP
NATIONAL WEATHER SERVICE NEW ORLEANS LA
600 AM CDT SAT MAR 28 2015

NOTE: "FAIR" INDICATES FEW OR NO CLOUDS BELOW 12,000 FEET WITH NO
      SIGNIFICANT WEATHER AND/OR OBSTRUCTIONS TO VISIBILITY.
      SKY/WX - SKY CONDITION AND SIGNIFICANT WEATHER.
      TMP - AIR TEMPERATURE.     DP    - DEWPOINT TEMPERATURE.
      RH  - RELATIVE HUMIDITY.   PRES  - PRESSURE.
      HI  - HEAT INDEX.          WCI   - WIND CHILL INDEX.

*  THESE STATIONS ARE NOT NWS OR FAA STATIONS AND ARE NOT UNDER
   NWS QUALITY CONTROL.

LAZ038-040-048-061>063-065>067-069-281200-
SOUTHEAST LOUISIANA

CITY           SKY/WX    TMP DP  RH WIND       PRES   REMARKS
N.O. AUDUBON     N/A     52 N/A N/A MISG        N/A
N.O. INTL ARPT PTCLDY    51  39  63 SE6       30.18R
N.O. LAKEFRONT CLEAR     54  37  52 E14       30.20R
SLIDELL        CLEAR     41  39  93 N5        30.19R
BATON ROUGE    CLEAR     44  40  85 E3        30.19R
BOOTHVILLE     CLEAR     56  46  69 NE7       30.19R
BELLE CHASSE   CLEAR     44  40  85 NE5       30.19R
BOGALUSA*        N/A     41  37  88 CALM      30.21R
GALLIANO*      SUNNY     53  46  76 MISG      30.19R
NEW ROADS*       N/A     46  39  78 E3        30.19R
GONZALES*        N/A     46  40  78 CALM      30.19R
HAMMOND*       CLEAR     45  37  76 CALM      30.21R
HOUMA*         CLEAR     47  42  82 CALM      30.18R
PORT FOURCHON* SUNNY     57  46  67 NE9       30.21R

$$

MSZ070-080>082-281200-
SOUTHERN MISSISSIPPI

CITY           SKY/WX    TMP DP  RH WIND       PRES   REMARKS
MCCOMB         CLEAR     40  37  89 CALM      30.18R
GULFPORT       CLEAR     44  37  76 N3        30.20R
BILOXI         CLEAR     45  38  77 NE6       30.20R
PASCAGOULA     CLEAR     39  38  96 CALM      30.20R

$$

COASTAL OBSERVATIONS
LAKE AND NEARSHORE STATIONS

STATION/POSITION TIME  TEMP    WIND        PRES    WAVE
                       AIR SEA DIR/SP/G            HT/PER
                 (UTC) (F)     (DEG/KT/KT) (MB)    (FT/S)
PASCAGOULA       1000   46      20/  5/  7 1021.5
WAVELAND YACHT   1000   49 62   40/  8/ 10 1021.8
GRAND ISLE       1000   57 67   50/ 11/ 16 1021.1
SOUTHWEST PASS   1000   56 52   30/ 12/ 13 1021.5
NEW CANAL        1000   55      70/ 12/ 14 1021.8
SHELL BEACH      1000   55 64   60/ 13/ 16 1021.6

OFFSHORE STATIONS

STATION/POSITION TIME  TEMP    WIND        PRES    WAVE
                       AIR SEA DIR/SP/G            HT/PER
                 (UTC) (F)     (DEG/KT/KT) (MB)    (FT/S)
64 S DAUPHIN ISL 1050   58 71   10/ 12/ 17 1022.1    3/ 5

$$




USA.gov is the U.S. government's official web portal to all federal, state and local government web resources and services.